Sheboygan Falls, WI

11:25 AM CST on February 26, 2017 (GMT -0600)
Sheboygan County Memorial

Weather History for KSBM - November, 2013

Change the Weather History Date:

Saturday, November 2, 2013

  Actual Average Record
Temperature  
Mean Temperature 38 °F -  
Max Temperature 46 °F 52 °F 79 °F (1950)
Min Temperature 28 °F 38 °F 13 °F (1951)
Degree Days  
Heating Degree Days 28    
Moisture  
Dew Point 36 °F    
Average Humidity 85    
Maximum Humidity 100    
Minimum Humidity 68    
Precipitation  
Precipitation 0.02 in - - ()
Sea Level Pressure  
Sea Level Pressure 29.95 in    
Wind  
Wind Speed 7 mph (NNW)    
Max Wind Speed 13 mph    
Max Gust Speed -    
Visibility 10 miles    
Events Rain    
Averages and records for this station are not official NWS values.
T = Trace of Precipitation, MM = Missing Value Source: NWS Daily Summary

Daily Weather History Graph

Daily Weather History Graph

Search for Another Location

Airport or City:

Trip Planner

Search our weather history database for the weather conditions in past years. The results will help you decide how hot, cold, wet, or windy it might be!

Date:

Astronomy

Nov. 02, 2013 Rise Set
Actual Time 7:29 AM CDT 5:40 PM CDT
Civil Twilight 6:58 AM CDT 6:10 PM CDT
Nautical Twilight 6:24 AM CDT 6:44 PM CDT
Astronomical Twilight 5:51 AM CDT 7:17 PM CDT
Moon 6:24 AM CDT (11/2) 5:12 PM CDT (11/2)
Length of Visible Light 11h 11m
Length of Day
10h 11m
Waning Crescent, 1% of the Moon is Illuminated
Nov 2
Waning Crescent
Nov 3
New
Nov 9
First Quarter
Nov 17
Full
Nov 25
Last Quarter

Hourly Weather History & Observations

Time (CDT) Temp. Windchill Dew Point Humidity Pressure Visibility Wind Dir Wind Speed Gust Speed Precip Events Conditions
12:18 AM 42.8 °F 38.6 °F 42.8 °F 100% 29.71 in 10.0 mi NW 6.9 mph - N/A   Overcast
12:53 AM 43.0 °F 38.2 °F 42.1 °F 97% 29.73 in 10.0 mi NW 8.1 mph - N/A   Overcast
1:53 AM 43.0 °F 38.8 °F 42.1 °F 97% 29.74 in 10.0 mi NW 6.9 mph - 0.00 in Rain Light Rain
2:53 AM 43.0 °F 38.8 °F 41.0 °F 93% 29.76 in 10.0 mi NNW 6.9 mph - 0.00 in   Overcast
3:53 AM 43.0 °F 39.5 °F 41.0 °F 93% 29.77 in 10.0 mi NNW 5.8 mph - N/A   Overcast
4:53 AM 42.1 °F 37.7 °F 39.9 °F 92% 29.80 in 10.0 mi North 6.9 mph - N/A   Overcast
5:53 AM 41.0 °F 36.4 °F 39.0 °F 93% 29.83 in 10.0 mi North 6.9 mph - N/A   Overcast
6:53 AM 41.0 °F 36.4 °F 37.9 °F 89% 29.84 in 10.0 mi North 6.9 mph - N/A   Overcast
7:53 AM 37.9 °F 34.4 °F 37.0 °F 97% 29.87 in 10.0 mi North 4.6 mph - N/A   Mostly Cloudy
8:53 AM 42.1 °F 36.6 °F 37.9 °F 85% 29.90 in 10.0 mi NNW 9.2 mph - N/A   Clear
9:41 AM 42.8 °F 37.0 °F 37.4 °F 81% 29.90 in 10.0 mi NNW 10.4 mph - N/A   Mostly Cloudy
9:53 AM 42.1 °F 35.2 °F 37.0 °F 82% 29.92 in 10.0 mi NNW 12.7 mph - N/A   Mostly Cloudy
10:14 AM 42.8 °F 37.5 °F 37.4 °F 81% 29.91 in 10.0 mi NNW 9.2 mph - N/A   Scattered Clouds
10:25 AM 42.8 °F 37.0 °F 37.4 °F 81% 29.91 in 10.0 mi NNW 10.4 mph - N/A   Mostly Cloudy
10:53 AM 43.0 °F 37.2 °F 36.0 °F 76% 29.94 in 10.0 mi North 10.4 mph - N/A   Mostly Cloudy
11:43 AM 42.8 °F 37.0 °F 35.6 °F 76% 29.94 in 10.0 mi North 10.4 mph - N/A   Overcast
11:53 AM 43.0 °F 37.7 °F 36.0 °F 76% 29.96 in 10.0 mi North 9.2 mph - N/A   Overcast
12:16 PM 42.8 °F 37.0 °F 35.6 °F 76% 29.95 in 10.0 mi NNW 10.4 mph - N/A   Overcast
12:24 PM 42.8 °F 37.0 °F 35.6 °F 76% 29.95 in 10.0 mi North 10.4 mph - N/A   Overcast
12:33 PM 42.8 °F 38.0 °F 35.6 °F 76% 29.95 in 10.0 mi North 8.1 mph - N/A   Overcast
12:42 PM 44.6 °F 40.7 °F 35.6 °F 71% 29.95 in 10.0 mi North 6.9 mph - N/A   Overcast
12:53 PM 44.1 °F 38.6 °F 37.0 °F 76% 29.97 in 10.0 mi NNW 10.4 mph - N/A   Overcast
1:53 PM 45.0 °F 40.1 °F 35.1 °F 68% 29.98 in 10.0 mi North 9.2 mph - N/A   Overcast
2:53 PM 44.1 °F 39.0 °F 36.0 °F 73% 30.00 in 10.0 mi NE 9.2 mph - N/A   Overcast
3:41 PM 41.0 °F 38.0 °F 35.6 °F 81% 30.00 in 6.0 mi NNW 4.6 mph - 0.01 in Rain Rain
3:53 PM 41.0 °F - 36.0 °F 82% 30.03 in 10.0 mi Calm Calm - 0.02 in Rain Light Rain
4:36 PM 42.8 °F 37.5 °F 35.6 °F 76% 30.02 in 10.0 mi NNE 9.2 mph - 0.00 in   Overcast
4:53 PM 42.1 °F 37.1 °F 34.0 °F 73% 30.05 in 10.0 mi North 8.1 mph - 0.00 in   Overcast
5:53 PM 39.0 °F 35.7 °F 34.0 °F 82% 30.07 in 10.0 mi North 4.6 mph - N/A   Mostly Cloudy
6:53 PM 33.1 °F 30.0 °F 32.0 °F 96% 30.10 in 10.0 mi North 3.5 mph - N/A   Clear
7:53 PM 33.1 °F 30.0 °F 32.0 °F 96% 30.13 in 10.0 mi NW 3.5 mph - N/A   Clear
8:53 PM 34.0 °F 31.0 °F 33.1 °F 96% 30.13 in 10.0 mi NW 3.5 mph - N/A   Clear
9:53 PM 30.9 °F 26.2 °F 30.9 °F 100% 30.15 in 10.0 mi NNW 4.6 mph - N/A   Clear
10:53 PM 30.0 °F - 30.0 °F 100% 30.16 in 10.0 mi Calm Calm - N/A   Clear
11:53 PM 28.9 °F 25.2 °F 28.9 °F 100% 30.17 in 10.0 mi NW 3.5 mph - N/A   Clear